Mount Vernon, IL

10:36 AM CST on January 18, 2017 (GMT -0600)
Mount Vernon

Weather History for KMVN - July, 2014

Change the Weather History Date:

Saturday, July 5, 2014

  Actual Average Record
Temperature  
Mean Temperature 66 °F -  
Max Temperature 82 °F 85 °F 105 °F (2012)
Min Temperature 51 °F 64 °F 51 °F (1996)
Cooling Degree Days 2    
Growing Degree Days 16 (Base 50)    
Moisture  
Dew Point 54 °F    
Average Humidity 65    
Maximum Humidity 88    
Minimum Humidity 39    
Precipitation  
Precipitation 0.00 in - - ()
Sea Level Pressure  
Sea Level Pressure 30.22 in    
Wind  
Wind Speed 2 mph (South)    
Max Wind Speed 12 mph    
Max Gust Speed 16 mph    
Visibility 9 miles    
Events      
Averages and records for this station are not official NWS values.
T = Trace of Precipitation, MM = Missing Value Source: NWS Daily Summary

Daily Weather History Graph

Daily Weather History Graph

Search for Another Location

Airport or City:

Trip Planner

Search our weather history database for the weather conditions in past years. The results will help you decide how hot, cold, wet, or windy it might be!

Date:

Astronomy

Jul. 05, 2014 Rise Set
Actual Time 5:37 AM CDT 8:22 PM CDT
Civil Twilight 5:06 AM CDT 8:53 PM CDT
Nautical Twilight 4:26 AM CDT 9:32 PM CDT
Astronomical Twilight 3:42 AM CDT 10:17 PM CDT
Moon 1:25 PM CDT (7/5) 12:20 AM CDT (7/5)
Length of Visible Light 15h 47m
Length of Day
14h 44m
First Quarter, 52% of the Moon is Illuminated
Jul 5
First Quarter
Jul 12
Full
Jul 18
Last Quarter
Jul 26
New
Aug 3
First Quarter

Hourly Weather History & Observations

Time (CDT) Temp. Heat Index Dew Point Humidity Pressure Visibility Wind Dir Wind Speed Gust Speed Precip Events Conditions
12:15 AM 57.2 °F - 51.8 °F 82% 30.28 in 8.0 mi Calm Calm - N/A   Clear
12:35 AM 55.4 °F - 51.8 °F 88% 30.28 in 5.0 mi Calm Calm - N/A   Clear
12:55 AM 55.4 °F - 51.8 °F 88% 30.28 in 8.0 mi Calm Calm - N/A   Clear
1:15 AM 55.4 °F - 51.8 °F 88% 30.28 in 5.0 mi Calm Calm - N/A   Clear
1:35 AM 55.4 °F - 50.0 °F 82% 30.28 in 5.0 mi Calm Calm - N/A   Clear
1:55 AM 53.6 °F - 50.0 °F 88% 30.27 in 5.0 mi Calm Calm - N/A   Clear
2:15 AM 55.4 °F - 50.0 °F 82% 30.27 in 5.0 mi Calm Calm - N/A   Clear
2:35 AM 53.6 °F - 50.0 °F 88% 30.27 in 5.0 mi Calm Calm - N/A   Clear
2:55 AM 53.6 °F - 50.0 °F 88% 30.27 in 10.0 mi Calm Calm - N/A   Clear
3:15 AM 53.6 °F - 48.2 °F 82% 30.28 in 5.0 mi Calm Calm - N/A   Clear
3:35 AM 53.6 °F - 48.2 °F 82% 30.28 in 5.0 mi Calm Calm - N/A   Clear
3:55 AM 53.6 °F - 48.2 °F 82% 30.27 in 7.0 mi Calm Calm - N/A   Clear
4:15 AM 53.6 °F - 48.2 °F 82% 30.27 in 8.0 mi Calm Calm - N/A   Clear
4:35 AM 51.8 °F - 48.2 °F 88% 30.27 in 7.0 mi Calm Calm - N/A   Clear
4:55 AM 53.6 °F - 48.2 °F 82% 30.28 in 8.0 mi Calm Calm - N/A   Clear
5:15 AM 53.6 °F - 48.2 °F 82% 30.28 in 8.0 mi Calm Calm - N/A   Clear
5:35 AM 53.6 °F - 48.2 °F 82% 30.28 in 10.0 mi Calm Calm - N/A   Clear
5:55 AM 51.8 °F - 48.2 °F 88% 30.28 in 8.0 mi Calm Calm - N/A   Clear
6:15 AM 53.6 °F - 48.2 °F 82% 30.27 in 9.0 mi Calm Calm - N/A   Clear
6:35 AM 55.4 °F - 51.8 °F 88% 30.28 in 10.0 mi Calm Calm - N/A   Clear
6:55 AM 57.2 °F - 53.6 °F 88% 30.28 in 10.0 mi Calm Calm - N/A   Clear
7:15 AM 60.8 °F - 53.6 °F 77% 30.28 in 10.0 mi Calm Calm - N/A   Clear
7:35 AM 62.6 °F - 55.4 °F 77% 30.28 in 10.0 mi Calm Calm - N/A   Clear
7:55 AM 66.2 °F - 57.2 °F 73% 30.28 in 10.0 mi Calm Calm - N/A   Clear
8:15 AM 69.8 °F - 57.2 °F 64% 30.28 in 10.0 mi Calm Calm - N/A   Clear
8:35 AM 71.6 °F - 57.2 °F 60% 30.28 in 10.0 mi SE 3.5 mph - N/A   Clear
8:55 AM 73.4 °F - 57.2 °F 57% 30.30 in 10.0 mi SSE 3.5 mph - N/A   Clear
9:15 AM 73.4 °F - 57.2 °F 57% 30.29 in 10.0 mi SE 5.8 mph - N/A   Clear
9:35 AM 75.2 °F - 57.2 °F 53% 30.29 in 10.0 mi SE 6.9 mph - N/A   Clear
9:55 AM 75.2 °F - 57.2 °F 53% 30.29 in 10.0 mi South 4.6 mph - N/A   Clear
10:15 AM 77.0 °F - 57.2 °F 50% 30.28 in 10.0 mi SSE 4.6 mph - N/A   Clear
10:35 AM 78.8 °F - 55.4 °F 44% 30.27 in 10.0 mi South 10.4 mph - N/A   Clear
10:55 AM 78.8 °F - 53.6 °F 42% 30.27 in 10.0 mi SE 8.1 mph - N/A   Clear
11:15 AM 78.8 °F - 53.6 °F 42% 30.26 in 10.0 mi SE 8.1 mph - N/A   Clear
11:35 AM 80.6 °F 80.3 °F 53.6 °F 39% 30.26 in 10.0 mi South 5.8 mph - N/A   Clear
11:55 AM 80.6 °F 80.5 °F 55.4 °F 42% 30.26 in 10.0 mi SSW 11.5 mph - N/A   Clear
12:15 PM 80.6 °F 80.5 °F 55.4 °F 42% 30.25 in 10.0 mi SE 9.2 mph 16.1 mph N/A   Clear
12:35 PM 80.6 °F 80.3 °F 53.6 °F 39% 30.25 in 9.0 mi SSW 8.1 mph - N/A   Clear
12:55 PM 80.6 °F 80.3 °F 53.6 °F 39% 30.25 in 10.0 mi South 9.2 mph - N/A   Clear
1:15 PM 80.6 °F 80.3 °F 53.6 °F 39% 30.24 in 10.0 mi SSE 4.6 mph - N/A   Clear
1:35 PM 80.6 °F 80.3 °F 53.6 °F 39% 30.24 in 10.0 mi SW 8.1 mph - N/A   Clear
1:55 PM 80.6 °F 80.5 °F 55.4 °F 42% 30.23 in 10.0 mi SW 5.8 mph - N/A   Clear
2:15 PM 82.4 °F 81.7 °F 55.4 °F 39% 30.23 in 10.0 mi SSE 5.8 mph - N/A   Clear
2:35 PM 82.4 °F 81.7 °F 55.4 °F 39% 30.22 in 10.0 mi SSE 4.6 mph - N/A   Clear
3:15 PM 80.6 °F 80.3 °F 53.6 °F 39% 30.21 in 8.0 mi Calm Calm - N/A   Clear
3:35 PM 80.6 °F 80.3 °F 53.6 °F 39% 30.20 in 10.0 mi South 6.9 mph - N/A   Clear
3:55 PM 80.6 °F 80.5 °F 55.4 °F 42% 30.19 in 10.0 mi SSW 8.1 mph - N/A   Clear
4:15 PM 80.6 °F 80.5 °F 55.4 °F 42% 30.18 in 5.0 mi South 6.9 mph - N/A   Clear
4:35 PM 80.6 °F 80.5 °F 55.4 °F 42% 30.17 in 10.0 mi South 9.2 mph - N/A   Clear
4:55 PM 80.6 °F 80.5 °F 55.4 °F 42% 30.16 in 10.0 mi SSW 8.1 mph - N/A   Clear
5:15 PM 80.6 °F 80.5 °F 55.4 °F 42% 30.15 in 10.0 mi South 5.8 mph - N/A   Clear
5:35 PM 78.8 °F - 57.2 °F 47% 30.15 in 10.0 mi South 4.6 mph - N/A   Clear
5:55 PM 78.8 °F - 57.2 °F 47% 30.13 in 10.0 mi SSE 5.8 mph - N/A   Clear
6:15 PM 78.8 °F - 57.2 °F 47% 30.12 in 10.0 mi South 8.1 mph - N/A   Clear
6:35 PM 78.8 °F - 57.2 °F 47% 30.11 in 10.0 mi South 6.9 mph - N/A   Clear
6:55 PM 77.0 °F - 57.2 °F 50% 30.13 in 10.0 mi SSW 5.8 mph - N/A   Clear
7:15 PM 75.2 °F - 59.0 °F 57% 30.11 in 10.0 mi SE 5.8 mph - N/A   Clear
7:35 PM 75.2 °F - 59.0 °F 57% 30.13 in 10.0 mi SSW 3.5 mph - N/A   Clear
7:55 PM 73.4 °F - 60.8 °F 65% 30.13 in 10.0 mi South 3.5 mph - N/A   Clear
8:15 PM 69.8 °F - 57.2 °F 64% 30.13 in 10.0 mi Calm Calm - N/A   Clear
8:35 PM 66.2 °F - 59.0 °F 78% 30.12 in 10.0 mi Calm Calm - N/A   Clear
8:55 PM 66.2 °F - 57.2 °F 73% 30.12 in 4.0 mi Calm Calm - N/A   Clear
9:15 PM 66.2 °F - 57.2 °F 73% 30.12 in 10.0 mi Calm Calm - N/A   Clear
9:35 PM 62.6 °F - 57.2 °F 82% 30.13 in 10.0 mi Calm Calm - N/A   Clear
9:55 PM 62.6 °F - 57.2 °F 82% 30.13 in 10.0 mi Calm Calm - N/A   Clear
10:15 PM 62.6 °F - 57.2 °F 82% 30.11 in 10.0 mi Calm Calm - N/A   Clear
10:35 PM 64.4 °F - 59.0 °F 83% 30.12 in 10.0 mi Calm Calm - N/A   Clear
10:55 PM 62.6 °F - 57.2 °F 82% 30.12 in 10.0 mi Calm Calm - N/A   Clear
11:15 PM 62.6 °F - 57.2 °F 82% 30.12 in 10.0 mi Calm Calm - N/A   Clear
11:35 PM 60.8 °F - 57.2 °F 88% 30.12 in 10.0 mi Calm Calm - N/A   Clear
11:55 PM 60.8 °F - 57.2 °F 88% 30.11 in 10.0 mi Calm Calm - N/A   Clear